Year,Month,Day,Hour,Minute,Value (Times are PST for temperature in C)
2020,01,19,00,00,3.90
2020,01,19,00,01,3.90
2020,01,19,00,02,3.90
2020,01,19,00,03,3.90
2020,01,19,00,04,3.90
2020,01,19,00,05,3.90
2020,01,19,00,06,3.90
2020,01,19,00,07,3.90
2020,01,19,00,08,3.90
2020,01,19,00,09,3.80
2020,01,19,00,10,3.80
2020,01,19,00,11,3.90
2020,01,19,00,12,3.90
2020,01,19,00,13,3.90
2020,01,19,00,14,3.90
2020,01,19,00,15,3.90
2020,01,19,00,16,3.90
2020,01,19,00,17,4.00
2020,01,19,00,18,4.00
2020,01,19,00,19,4.00
2020,01,19,00,20,4.00
2020,01,19,00,21,3.90
2020,01,19,00,22,3.90
2020,01,19,00,23,3.90
2020,01,19,00,24,3.90
2020,01,19,00,25,3.90
2020,01,19,00,26,3.90
2020,01,19,00,27,3.80
2020,01,19,00,28,3.80
2020,01,19,00,29,3.80
2020,01,19,00,30,3.80
2020,01,19,00,31,3.80
2020,01,19,00,32,3.80
2020,01,19,00,33,3.80
2020,01,19,00,34,3.80
2020,01,19,00,35,3.70
2020,01,19,00,36,3.70
2020,01,19,00,37,3.70
2020,01,19,00,38,3.70
2020,01,19,00,39,3.70
2020,01,19,00,40,3.80
2020,01,19,00,41,3.70
2020,01,19,00,42,3.70
2020,01,19,00,43,3.80
2020,01,19,00,44,3.70
2020,01,19,00,45,3.70
2020,01,19,00,46,3.70
2020,01,19,00,47,3.70
2020,01,19,00,48,3.70
2020,01,19,00,49,3.70
2020,01,19,00,50,3.70
2020,01,19,00,51,3.70
2020,01,19,00,52,3.70
2020,01,19,00,53,3.70
2020,01,19,00,54,3.70
2020,01,19,00,55,3.70
2020,01,19,00,56,3.70
2020,01,19,00,57,3.70
2020,01,19,00,58,3.70
2020,01,19,00,59,3.70
2020,01,19,01,00,3.70
2020,01,19,01,01,3.70
2020,01,19,01,02,3.70
2020,01,19,01,03,3.70
2020,01,19,01,04,3.60
2020,01,19,01,05,3.60
2020,01,19,01,06,3.60
2020,01,19,01,07,3.60
2020,01,19,01,08,3.50
2020,01,19,01,09,3.50
2020,01,19,01,10,3.50
2020,01,19,01,11,3.50
2020,01,19,01,12,3.50
2020,01,19,01,13,3.50
2020,01,19,01,14,3.50
2020,01,19,01,15,3.50
2020,01,19,01,16,3.60
2020,01,19,01,17,3.50
2020,01,19,01,18,3.60
2020,01,19,01,19,3.50
2020,01,19,01,20,3.50
2020,01,19,01,21,3.50
2020,01,19,01,22,3.50
2020,01,19,01,23,3.50
2020,01,19,01,24,3.50
2020,01,19,01,25,3.50
2020,01,19,01,26,3.50
2020,01,19,01,27,3.50
2020,01,19,01,28,3.50
2020,01,19,01,29,3.50
2020,01,19,01,30,3.50
2020,01,19,01,31,3.50
2020,01,19,01,32,3.50
2020,01,19,01,33,3.50
2020,01,19,01,34,3.50
2020,01,19,01,35,3.50
2020,01,19,01,36,3.50
2020,01,19,01,37,3.50
2020,01,19,01,38,3.40
2020,01,19,01,39,3.50
2020,01,19,01,40,3.50
2020,01,19,01,41,3.50
2020,01,19,01,42,3.40
2020,01,19,01,43,3.40
2020,01,19,01,44,3.40
2020,01,19,01,45,3.40
2020,01,19,01,46,3.40
2020,01,19,01,47,3.40
2020,01,19,01,48,3.40
2020,01,19,01,49,3.40
2020,01,19,01,50,3.40
2020,01,19,01,51,3.40
2020,01,19,01,52,3.40
2020,01,19,01,53,3.40
2020,01,19,01,54,3.40
2020,01,19,01,55,3.40
2020,01,19,01,56,3.40
2020,01,19,01,57,3.40
2020,01,19,01,58,3.40
2020,01,19,01,59,3.40
2020,01,19,02,00,3.40
2020,01,19,02,01,3.40
2020,01,19,02,02,3.40
2020,01,19,02,03,3.40
2020,01,19,02,04,3.40
2020,01,19,02,05,3.40
2020,01,19,02,06,3.50
2020,01,19,02,07,3.50
2020,01,19,02,08,3.50
2020,01,19,02,09,3.50
2020,01,19,02,10,3.50
2020,01,19,02,11,3.50
2020,01,19,02,12,3.50
2020,01,19,02,13,3.50
2020,01,19,02,14,3.60
2020,01,19,02,15,3.60
2020,01,19,02,16,3.60
2020,01,19,02,17,3.60
2020,01,19,02,18,3.60
2020,01,19,02,19,3.60
2020,01,19,02,20,3.50
2020,01,19,02,21,3.50
2020,01,19,02,22,3.50
2020,01,19,02,23,3.40
2020,01,19,02,24,3.40
2020,01,19,02,25,3.40
2020,01,19,02,26,3.30
2020,01,19,02,27,3.30
2020,01,19,02,28,3.30
2020,01,19,02,29,3.30
2020,01,19,02,30,3.30
2020,01,19,02,31,3.40
2020,01,19,02,32,3.40
2020,01,19,02,33,3.40
2020,01,19,02,34,3.40
2020,01,19,02,35,3.40
2020,01,19,02,36,3.40
2020,01,19,02,37,3.40
2020,01,19,02,38,3.50
2020,01,19,02,39,3.50
2020,01,19,02,40,3.50
2020,01,19,02,41,3.60
2020,01,19,02,42,3.60
2020,01,19,02,43,3.60
2020,01,19,02,44,3.60
2020,01,19,02,45,3.60
2020,01,19,02,46,3.60
2020,01,19,02,47,3.60
2020,01,19,02,48,3.50
2020,01,19,02,49,3.50
2020,01,19,02,50,3.50
2020,01,19,02,51,3.50
2020,01,19,02,52,3.50
2020,01,19,02,53,3.50
2020,01,19,02,54,3.50
2020,01,19,02,55,3.60
2020,01,19,02,56,3.60
2020,01,19,02,57,3.60
2020,01,19,02,58,3.60
2020,01,19,02,59,3.70
2020,01,19,03,00,3.70
2020,01,19,03,01,3.70
2020,01,19,03,02,3.70
2020,01,19,03,03,3.80
2020,01,19,03,04,3.70
2020,01,19,03,05,3.70
2020,01,19,03,06,3.70
2020,01,19,03,07,3.70
2020,01,19,03,08,3.70
2020,01,19,03,09,3.80
2020,01,19,03,10,3.80
2020,01,19,03,11,3.80
2020,01,19,03,12,3.80
2020,01,19,03,13,3.80
2020,01,19,03,14,3.80
2020,01,19,03,15,3.80
2020,01,19,03,16,3.80
2020,01,19,03,17,3.90
2020,01,19,03,18,3.90
2020,01,19,03,19,3.90
2020,01,19,03,20,4.00
2020,01,19,03,21,4.00
2020,01,19,03,22,4.10
2020,01,19,03,23,4.10
2020,01,19,03,24,4.20
2020,01,19,03,25,4.20
2020,01,19,03,26,4.20
2020,01,19,03,27,4.10
2020,01,19,03,28,4.00
2020,01,19,03,29,4.00
2020,01,19,03,30,3.90
2020,01,19,03,31,3.90
2020,01,19,03,32,3.90
2020,01,19,03,33,3.90
2020,01,19,03,34,3.90
2020,01,19,03,35,3.90
2020,01,19,03,36,3.90
2020,01,19,03,37,3.90
2020,01,19,03,38,4.00
2020,01,19,03,39,4.10
2020,01,19,03,40,4.10
2020,01,19,03,41,4.20
2020,01,19,03,42,4.20
2020,01,19,03,43,4.20
2020,01,19,03,44,4.20
2020,01,19,03,45,4.20
2020,01,19,03,46,4.20
2020,01,19,03,47,4.20
2020,01,19,03,48,4.10
2020,01,19,03,49,4.10
2020,01,19,03,50,4.10
2020,01,19,03,51,4.10
2020,01,19,03,52,4.10
2020,01,19,03,53,4.10
2020,01,19,03,54,4.10
2020,01,19,03,55,4.10
2020,01,19,03,56,4.10
2020,01,19,03,57,4.10
2020,01,19,03,58,4.10
2020,01,19,03,59,4.20
2020,01,19,04,00,4.20
2020,01,19,04,01,4.30
2020,01,19,04,02,4.30
2020,01,19,04,03,4.40
2020,01,19,04,04,4.50
2020,01,19,04,05,4.60
2020,01,19,04,06,4.50
2020,01,19,04,07,4.50
2020,01,19,04,08,4.50
2020,01,19,04,09,4.60
2020,01,19,04,10,4.80
2020,01,19,04,11,4.90
2020,01,19,04,12,4.90
2020,01,19,04,13,4.90
2020,01,19,04,14,4.90
2020,01,19,04,15,5.00
2020,01,19,04,16,5.00
2020,01,19,04,17,5.10
2020,01,19,04,18,5.10
2020,01,19,04,19,5.20
2020,01,19,04,20,5.20
2020,01,19,04,21,5.30
2020,01,19,04,22,5.30
2020,01,19,04,23,5.30
2020,01,19,04,24,5.30
2020,01,19,04,25,5.30
2020,01,19,04,26,5.30
2020,01,19,04,27,5.30
2020,01,19,04,28,5.30
2020,01,19,04,29,5.20
2020,01,19,04,30,5.20
2020,01,19,04,31,5.30
2020,01,19,04,32,5.30
2020,01,19,04,33,5.30
2020,01,19,04,34,5.20
2020,01,19,04,35,5.20
2020,01,19,04,36,5.10
2020,01,19,04,37,5.00
2020,01,19,04,38,5.00
2020,01,19,04,39,4.90
2020,01,19,04,40,4.80
2020,01,19,04,41,4.80
2020,01,19,04,42,4.80
2020,01,19,04,43,4.80
2020,01,19,04,44,4.80
2020,01,19,04,45,4.80
2020,01,19,04,46,4.80
2020,01,19,04,47,4.80
2020,01,19,04,48,4.80
2020,01,19,04,49,4.80
2020,01,19,04,50,4.80
2020,01,19,04,51,4.90
2020,01,19,04,52,4.90
2020,01,19,04,53,4.90
2020,01,19,04,54,4.90
2020,01,19,04,55,5.00
2020,01,19,04,56,5.00
2020,01,19,04,57,5.00
2020,01,19,04,58,5.00
2020,01,19,04,59,5.00
2020,01,19,05,00,5.00
2020,01,19,05,01,5.00
2020,01,19,05,02,5.00
2020,01,19,05,03,4.90
2020,01,19,05,04,4.90
2020,01,19,05,05,4.90
2020,01,19,05,06,4.80
2020,01,19,05,07,4.80
2020,01,19,05,08,4.80
2020,01,19,05,09,4.80
2020,01,19,05,10,4.80
2020,01,19,05,11,4.80
2020,01,19,05,12,4.80
2020,01,19,05,13,4.80
2020,01,19,05,14,4.80
2020,01,19,05,15,4.80
2020,01,19,05,16,4.80
2020,01,19,05,17,4.80
2020,01,19,05,18,4.80
2020,01,19,05,19,4.80
2020,01,19,05,20,4.80
2020,01,19,05,21,4.80
2020,01,19,05,22,4.80
2020,01,19,05,23,4.90
2020,01,19,05,24,4.90
2020,01,19,05,25,4.90
2020,01,19,05,26,4.90
2020,01,19,05,27,5.00
2020,01,19,05,28,5.00
2020,01,19,05,29,5.00
2020,01,19,05,30,4.90
2020,01,19,05,31,4.90
2020,01,19,05,32,4.90
2020,01,19,05,33,4.90
2020,01,19,05,34,4.90
2020,01,19,05,35,4.90
2020,01,19,05,36,4.90
2020,01,19,05,37,4.90
2020,01,19,05,38,4.90
2020,01,19,05,39,4.90
2020,01,19,05,40,4.90
2020,01,19,08,29,5.30
2020,01,19,08,30,5.30
2020,01,19,08,31,5.30
2020,01,19,08,32,5.30
2020,01,19,08,33,5.30
2020,01,19,08,34,5.20
2020,01,19,08,35,5.20
2020,01,19,08,36,5.20
2020,01,19,08,37,5.10
2020,01,19,08,38,5.00
2020,01,19,08,39,4.80
2020,01,19,08,40,4.70
2020,01,19,08,41,4.60
2020,01,19,08,42,4.60
2020,01,19,08,43,4.60
2020,01,19,08,44,4.70
2020,01,19,08,45,4.70
2020,01,19,08,46,4.80
2020,01,19,08,47,4.90
2020,01,19,08,48,4.90
2020,01,19,08,49,5.00
2020,01,19,08,50,5.00
2020,01,19,08,51,5.00
2020,01,19,08,52,5.00
2020,01,19,08,53,5.00
2020,01,19,08,54,5.00
2020,01,19,08,55,5.10
2020,01,19,08,56,5.20
2020,01,19,08,57,5.30
2020,01,19,08,58,5.30
2020,01,19,08,59,5.30
2020,01,19,09,00,5.30
2020,01,19,09,01,5.30
2020,01,19,09,02,5.30
2020,01,19,09,03,5.30
2020,01,19,09,04,5.30
2020,01,19,09,05,5.30
2020,01,19,09,06,5.40
2020,01,19,09,07,5.40
2020,01,19,09,08,5.30
2020,01,19,09,09,5.30
2020,01,19,09,10,5.20
2020,01,19,09,11,5.20
2020,01,19,09,12,5.20
2020,01,19,09,13,5.30
2020,01,19,09,14,5.30
2020,01,19,09,15,5.40
2020,01,19,09,16,5.40
2020,01,19,09,17,5.50
2020,01,19,09,18,5.60
2020,01,19,09,19,5.60
2020,01,19,09,20,5.70
2020,01,19,09,21,5.80
2020,01,19,09,22,5.80
2020,01,19,09,23,5.80
2020,01,19,09,24,5.80
2020,01,19,09,25,5.80
2020,01,19,09,26,5.80
2020,01,19,09,27,5.80
2020,01,19,09,28,5.80
2020,01,19,09,29,5.80
2020,01,19,09,30,5.80
2020,01,19,09,31,5.80
2020,01,19,09,32,5.80
2020,01,19,09,33,5.80
2020,01,19,09,34,5.80
2020,01,19,09,35,5.80
2020,01,19,09,36,5.80
2020,01,19,09,37,5.80
2020,01,19,09,38,5.80
2020,01,19,09,39,5.80
2020,01,19,09,40,5.80
2020,01,19,09,41,5.80
2020,01,19,09,42,5.80
2020,01,19,09,43,5.80
2020,01,19,09,44,5.90
2020,01,19,09,45,5.90
2020,01,19,09,46,6.00
2020,01,19,09,47,6.10
2020,01,19,09,48,6.20
2020,01,19,09,49,6.30
2020,01,19,09,50,6.40
2020,01,19,09,51,6.40
2020,01,19,09,52,6.50
2020,01,19,09,53,6.60
2020,01,19,09,54,6.60
2020,01,19,09,55,6.70
2020,01,19,09,56,6.70
2020,01,19,09,57,6.70
2020,01,19,09,58,6.80
2020,01,19,09,59,6.80
2020,01,19,10,00,6.80
2020,01,19,10,01,6.90
2020,01,19,10,02,6.90
2020,01,19,10,03,7.00
2020,01,19,10,04,7.10
2020,01,19,10,05,7.10
2020,01,19,10,06,7.10
2020,01,19,10,07,7.20
2020,01,19,10,08,7.20
2020,01,19,10,09,7.20
2020,01,19,10,10,7.20
2020,01,19,10,11,7.20
2020,01,19,10,12,7.20
2020,01,19,10,13,7.20
2020,01,19,10,14,7.20
2020,01,19,10,15,7.20
2020,01,19,10,16,7.20
2020,01,19,10,17,7.20
2020,01,19,10,18,7.20
2020,01,19,10,19,7.10
2020,01,19,10,20,7.10
2020,01,19,10,21,7.10
2020,01,19,10,22,7.10
2020,01,19,10,23,7.10
2020,01,19,10,24,7.10
2020,01,19,10,25,7.10
2020,01,19,10,26,7.10
2020,01,19,10,27,7.10
2020,01,19,10,28,7.10
2020,01,19,10,29,7.20
2020,01,19,10,30,7.20
2020,01,19,10,31,7.20
2020,01,19,10,32,7.20
2020,01,19,10,33,7.20
2020,01,19,10,34,7.20
2020,01,19,10,35,7.30
2020,01,19,10,36,7.30
2020,01,19,10,37,7.30
2020,01,19,10,38,7.30
2020,01,19,10,39,7.30
2020,01,19,10,40,7.30
2020,01,19,10,41,7.30
2020,01,19,10,42,7.30
2020,01,19,10,43,7.30
2020,01,19,10,44,7.30
2020,01,19,10,45,7.30
2020,01,19,10,46,7.30
2020,01,19,10,47,7.30
2020,01,19,10,48,7.30
2020,01,19,10,49,7.30
2020,01,19,10,50,7.30
2020,01,19,10,51,7.30
2020,01,19,10,52,7.30
2020,01,19,10,53,7.30
2020,01,19,10,54,7.30
2020,01,19,10,55,7.30
2020,01,19,10,56,7.30
2020,01,19,10,57,7.30
2020,01,19,10,58,7.30
2020,01,19,10,59,7.30
2020,01,19,11,00,7.30
2020,01,19,11,01,7.30
2020,01,19,11,02,7.30
2020,01,19,11,03,7.30
2020,01,19,11,04,7.30
2020,01,19,11,05,7.30
2020,01,19,11,06,7.30
2020,01,19,11,07,7.30
2020,01,19,11,08,7.30
2020,01,19,11,09,7.30
2020,01,19,11,10,7.30
2020,01,19,11,11,7.30
2020,01,19,11,12,7.30
2020,01,19,11,13,7.30
2020,01,19,11,14,7.30
2020,01,19,11,15,7.30
2020,01,19,11,16,7.30
2020,01,19,11,17,7.40
2020,01,19,11,18,7.40
2020,01,19,11,19,7.40
2020,01,19,11,20,7.40
2020,01,19,11,21,7.40
2020,01,19,11,22,7.40
2020,01,19,11,23,7.40
2020,01,19,11,24,7.40
2020,01,19,11,25,7.50
2020,01,19,11,26,7.50
2020,01,19,11,27,7.50
2020,01,19,11,28,7.60
2020,01,19,11,29,7.60
2020,01,19,11,30,7.60
2020,01,19,11,31,7.60
2020,01,19,11,32,7.60
2020,01,19,11,33,7.70
2020,01,19,11,34,7.70
2020,01,19,11,35,7.70
2020,01,19,11,36,7.70
2020,01,19,11,37,7.70
2020,01,19,11,38,7.80
2020,01,19,11,39,7.80
2020,01,19,11,40,7.80
2020,01,19,11,41,7.80
2020,01,19,11,42,7.80
2020,01,19,11,43,7.80
2020,01,19,11,44,7.80
2020,01,19,11,45,7.80
2020,01,19,11,46,7.90
2020,01,19,11,47,7.80
2020,01,19,11,48,7.80
2020,01,19,11,49,7.80
2020,01,19,11,50,7.90
2020,01,19,11,51,7.90
2020,01,19,11,52,7.90
2020,01,19,11,53,7.90
2020,01,19,11,54,7.90
2020,01,19,11,55,7.90
2020,01,19,11,56,7.90
2020,01,19,11,57,7.90
2020,01,19,11,58,7.90
2020,01,19,11,59,7.90
2020,01,19,12,00,7.90
2020,01,19,12,01,7.90
2020,01,19,12,02,7.90
2020,01,19,12,03,7.90
2020,01,19,12,04,7.90
2020,01,19,12,05,7.90
2020,01,19,12,06,7.90
2020,01,19,12,07,7.90
2020,01,19,12,08,7.90
2020,01,19,12,09,7.90
2020,01,19,12,10,7.90
2020,01,19,12,11,7.90
2020,01,19,12,12,7.90
2020,01,19,12,13,7.90
2020,01,19,12,14,7.90
2020,01,19,12,15,7.90
2020,01,19,12,16,7.90
2020,01,19,12,17,7.90
2020,01,19,12,18,7.90
2020,01,19,12,19,7.90
2020,01,19,12,20,7.90
2020,01,19,12,21,7.80
2020,01,19,12,22,7.80
2020,01,19,12,23,7.80
2020,01,19,12,24,7.80
2020,01,19,12,25,7.80
2020,01,19,12,26,7.80
2020,01,19,12,27,7.80
2020,01,19,12,28,7.80
2020,01,19,12,29,7.80
2020,01,19,12,30,7.80
2020,01,19,12,31,7.80
2020,01,19,12,32,7.80
2020,01,19,12,33,7.70
2020,01,19,12,34,7.70
2020,01,19,12,35,7.70
2020,01,19,12,36,7.70
2020,01,19,12,37,7.70
2020,01,19,12,38,7.70
2020,01,19,12,39,7.70
2020,01,19,12,40,7.70
2020,01,19,12,41,7.70
2020,01,19,12,42,7.70
2020,01,19,12,43,7.70
2020,01,19,12,44,7.70
2020,01,19,12,45,7.70
2020,01,19,12,46,7.70
2020,01,19,12,47,7.70
2020,01,19,12,48,7.70
2020,01,19,12,49,7.70
2020,01,19,12,50,7.70
2020,01,19,12,51,7.70
2020,01,19,12,52,7.80
2020,01,19,12,53,7.80
2020,01,19,12,54,7.80
2020,01,19,12,55,7.80
2020,01,19,12,56,7.80
2020,01,19,12,57,7.80
2020,01,19,12,58,7.70
2020,01,19,12,59,7.70
2020,01,19,13,00,7.70
2020,01,19,13,01,7.70
2020,01,19,13,02,7.70
2020,01,19,13,03,7.70
2020,01,19,13,04,7.70
2020,01,19,13,05,7.70
2020,01,19,13,06,7.70
2020,01,19,13,07,7.60
2020,01,19,13,08,7.60
2020,01,19,13,09,7.60
2020,01,19,13,10,7.60
2020,01,19,13,11,7.60
2020,01,19,13,12,7.60
2020,01,19,13,13,7.60
2020,01,19,13,14,7.60
2020,01,19,13,15,7.60
2020,01,19,13,16,7.60
2020,01,19,13,17,7.60
2020,01,19,13,18,7.60
2020,01,19,13,19,7.70
2020,01,19,13,20,7.70
2020,01,19,13,21,7.70
2020,01,19,13,22,7.70
2020,01,19,13,23,7.70
2020,01,19,13,24,7.70
2020,01,19,13,25,7.70
2020,01,19,13,26,7.70
2020,01,19,13,27,7.70
2020,01,19,13,28,7.70
2020,01,19,13,29,7.70
2020,01,19,13,30,7.70
2020,01,19,13,31,7.70
2020,01,19,13,32,7.70
2020,01,19,13,33,7.70
2020,01,19,13,34,7.70
2020,01,19,13,35,7.80
2020,01,19,13,36,7.80
2020,01,19,13,37,7.80
2020,01,19,13,38,7.80
2020,01,19,13,39,7.80
2020,01,19,13,40,7.80
2020,01,19,13,41,7.80
2020,01,19,13,42,7.80
2020,01,19,13,43,7.80
2020,01,19,13,44,7.80
2020,01,19,13,45,7.80
2020,01,19,13,46,7.80
2020,01,19,13,47,7.80
2020,01,19,13,48,7.80
2020,01,19,13,49,7.80
2020,01,19,13,50,7.80
2020,01,19,13,51,7.90
2020,01,19,13,52,7.90
2020,01,19,13,53,8.00
2020,01,19,13,54,8.10
2020,01,19,13,55,8.20
2020,01,19,13,56,8.30
2020,01,19,13,57,8.40
2020,01,19,13,58,8.40
2020,01,19,13,59,8.50
2020,01,19,14,00,8.50
2020,01,19,14,01,8.60
2020,01,19,14,02,8.60
2020,01,19,14,03,8.70
2020,01,19,14,04,8.70
2020,01,19,14,05,8.70
2020,01,19,14,06,8.70
2020,01,19,14,07,8.70
2020,01,19,14,08,8.70
2020,01,19,14,09,8.70
2020,01,19,14,10,8.80
2020,01,19,14,11,8.80
2020,01,19,14,12,8.80
2020,01,19,14,13,8.80
2020,01,19,14,14,8.80
2020,01,19,14,15,8.80
2020,01,19,14,16,8.80
2020,01,19,14,17,8.80
2020,01,19,14,18,8.80
2020,01,19,14,19,8.80
2020,01,19,14,20,8.80
2020,01,19,14,21,8.80
2020,01,19,14,22,8.80
2020,01,19,14,23,8.80
2020,01,19,14,24,8.80
2020,01,19,14,25,8.80
2020,01,19,14,26,8.70
2020,01,19,14,27,8.80
2020,01,19,14,28,8.80
2020,01,19,14,29,8.80
2020,01,19,14,30,8.80
2020,01,19,14,31,8.80
2020,01,19,14,32,8.80
2020,01,19,14,33,8.80
2020,01,19,14,34,8.80
2020,01,19,14,35,8.80
2020,01,19,14,36,8.80
2020,01,19,14,37,8.80
2020,01,19,14,38,8.70
2020,01,19,14,39,8.70
2020,01,19,14,40,8.80
2020,01,19,14,41,8.70
2020,01,19,14,42,8.70
2020,01,19,14,43,8.70
2020,01,19,14,44,8.70
2020,01,19,14,45,8.70
2020,01,19,14,46,8.70
2020,01,19,14,47,8.70
2020,01,19,14,48,8.70
2020,01,19,14,49,8.70
2020,01,19,14,50,8.70
2020,01,19,14,51,8.70
2020,01,19,14,52,8.70
2020,01,19,14,53,8.70
2020,01,19,14,54,8.70
2020,01,19,14,55,8.70
2020,01,19,14,56,8.70
2020,01,19,14,57,8.70
2020,01,19,14,58,8.70
2020,01,19,14,59,8.70
2020,01,19,15,00,8.80
2020,01,19,15,01,8.80
2020,01,19,15,02,8.80
2020,01,19,15,03,8.80
2020,01,19,15,04,8.80
2020,01,19,15,05,8.80
2020,01,19,15,06,8.80
2020,01,19,15,07,8.80
2020,01,19,15,08,8.80
2020,01,19,15,09,8.80
2020,01,19,15,10,8.80
2020,01,19,15,11,8.80
2020,01,19,15,12,8.80
2020,01,19,15,13,8.80
2020,01,19,15,14,8.80
2020,01,19,15,15,8.80
2020,01,19,15,16,8.80
2020,01,19,15,17,8.80
2020,01,19,15,18,8.80
2020,01,19,15,19,8.90
2020,01,19,15,20,8.90
2020,01,19,15,21,8.90
2020,01,19,15,22,8.90
2020,01,19,15,23,8.90
2020,01,19,15,24,8.90
2020,01,19,15,25,8.90
2020,01,19,15,26,8.90
2020,01,19,15,27,8.90
2020,01,19,15,28,8.90
2020,01,19,15,29,8.90
2020,01,19,15,30,8.90
2020,01,19,15,31,9.00
2020,01,19,15,32,9.00
2020,01,19,15,33,9.00
2020,01,19,15,34,9.00
2020,01,19,15,35,9.00
2020,01,19,15,36,9.00
2020,01,19,15,37,9.10
2020,01,19,15,38,9.10
2020,01,19,15,39,9.10
2020,01,19,15,40,9.10
2020,01,19,15,41,9.10
2020,01,19,15,42,9.10
2020,01,19,15,43,9.10
2020,01,19,15,44,9.10
2020,01,19,15,45,9.10
2020,01,19,15,46,9.10
2020,01,19,15,47,9.20
2020,01,19,15,48,9.20
2020,01,19,15,49,9.20
2020,01,19,15,50,9.20
2020,01,19,15,51,9.20
2020,01,19,15,52,9.20
2020,01,19,15,53,9.20
2020,01,19,15,54,9.20
2020,01,19,15,55,9.20
2020,01,19,15,56,9.20
2020,01,19,15,57,9.20
2020,01,19,15,58,9.20
2020,01,19,15,59,9.20
2020,01,19,16,00,9.20
2020,01,19,16,01,9.20
2020,01,19,16,02,9.20
2020,01,19,16,03,9.20
2020,01,19,16,04,9.20
2020,01,19,16,05,9.20
2020,01,19,16,06,9.20
2020,01,19,16,07,9.20
2020,01,19,16,08,9.20
2020,01,19,16,09,9.20
2020,01,19,16,10,9.20
2020,01,19,16,11,9.20
2020,01,19,16,12,9.10
2020,01,19,16,13,9.10
2020,01,19,16,14,9.10
2020,01,19,16,15,9.10
2020,01,19,16,16,9.10
2020,01,19,16,17,9.00
2020,01,19,16,18,9.00
2020,01,19,16,19,9.00
2020,01,19,16,20,9.00
2020,01,19,16,21,8.90
2020,01,19,16,22,8.90
2020,01,19,16,23,8.90
2020,01,19,16,24,8.90
2020,01,19,16,25,8.90
2020,01,19,16,26,8.90
2020,01,19,16,27,8.90
2020,01,19,16,28,8.90
2020,01,19,16,29,8.90
2020,01,19,16,30,8.80
2020,01,19,16,31,8.80
2020,01,19,16,32,8.80
2020,01,19,16,33,8.80
2020,01,19,16,34,8.80
2020,01,19,16,35,8.80
2020,01,19,16,36,8.80
2020,01,19,16,37,8.80
2020,01,19,16,38,8.80
2020,01,19,16,39,8.80
2020,01,19,16,40,8.80
2020,01,19,16,41,8.70
2020,01,19,16,42,8.70
2020,01,19,16,43,8.70
2020,01,19,16,44,8.70
2020,01,19,16,45,8.70
2020,01,19,16,46,8.70
2020,01,19,16,47,8.60
2020,01,19,16,48,8.60
2020,01,19,16,49,8.60
2020,01,19,16,50,8.60
2020,01,19,16,51,8.60
2020,01,19,16,52,8.60
2020,01,19,16,53,8.50
2020,01,19,16,54,8.50
2020,01,19,16,55,8.50
2020,01,19,16,56,8.50
2020,01,19,16,57,8.40
2020,01,19,16,58,8.40
2020,01,19,16,59,8.40
2020,01,19,17,00,8.40
2020,01,19,17,01,8.40
2020,01,19,17,02,8.40
2020,01,19,17,03,8.30
2020,01,19,17,04,8.30
2020,01,19,17,05,8.30
2020,01,19,17,06,8.30
2020,01,19,17,07,8.30
2020,01,19,17,08,8.30
2020,01,19,17,09,8.30
2020,01,19,17,10,8.30
2020,01,19,17,11,8.20
2020,01,19,17,12,8.20
2020,01,19,17,13,8.20
2020,01,19,17,14,8.20
2020,01,19,17,15,8.20
2020,01,19,17,16,8.20
2020,01,19,17,17,8.20
2020,01,19,17,18,8.10
2020,01,19,17,19,8.10
2020,01,19,17,20,8.10
2020,01,19,17,21,8.10
2020,01,19,17,22,8.10
2020,01,19,17,23,8.10
2020,01,19,17,24,8.10
2020,01,19,17,25,8.10
2020,01,19,17,26,8.10
2020,01,19,17,27,8.10
2020,01,19,17,28,8.00
2020,01,19,17,29,8.10
2020,01,19,17,30,8.00
2020,01,19,17,31,8.00
2020,01,19,17,32,8.00
2020,01,19,17,33,8.00
2020,01,19,17,34,8.00
2020,01,19,17,35,8.00
2020,01,19,17,36,8.00
2020,01,19,17,37,8.00
2020,01,19,17,38,8.00
2020,01,19,17,39,8.00
2020,01,19,17,40,8.00
2020,01,19,17,41,7.90
2020,01,19,17,42,7.90
2020,01,19,17,43,7.90
2020,01,19,17,44,7.90
2020,01,19,17,45,7.90
2020,01,19,17,46,7.90
2020,01,19,17,47,7.90
2020,01,19,17,48,7.90
2020,01,19,17,49,7.80
2020,01,19,17,50,7.80
2020,01,19,17,51,7.80
2020,01,19,17,52,7.80
2020,01,19,17,53,7.80
2020,01,19,17,54,7.80
2020,01,19,17,55,7.80
2020,01,19,17,56,7.80
2020,01,19,17,57,7.80
2020,01,19,17,58,7.70
2020,01,19,17,59,7.70
2020,01,19,18,00,7.70
2020,01,19,18,01,7.70
2020,01,19,18,02,7.70
2020,01,19,18,03,7.70
2020,01,19,18,04,7.70
2020,01,19,18,05,7.70
2020,01,19,18,06,7.70
2020,01,19,18,07,7.60
2020,01,19,18,08,7.60
2020,01,19,18,09,7.60
2020,01,19,18,10,7.60
2020,01,19,18,11,7.60
2020,01,19,18,12,7.60
2020,01,19,18,13,7.60
2020,01,19,18,14,7.60
2020,01,19,18,15,7.60
2020,01,19,18,16,7.60
2020,01,19,18,17,7.60
2020,01,19,18,18,7.60
2020,01,19,18,19,7.60
2020,01,19,18,20,7.60
2020,01,19,18,21,7.60
2020,01,19,18,22,7.60
2020,01,19,18,23,7.60
2020,01,19,18,24,7.60
2020,01,19,18,25,7.60
2020,01,19,18,26,7.60
2020,01,19,18,27,7.60
2020,01,19,18,28,7.60
2020,01,19,18,29,7.60
2020,01,19,18,30,7.50
2020,01,19,18,31,7.50
2020,01,19,18,32,7.50
2020,01,19,18,33,7.50
2020,01,19,18,34,7.50
2020,01,19,18,35,7.50
2020,01,19,18,36,7.50
2020,01,19,18,37,7.50
2020,01,19,18,38,7.50
2020,01,19,18,39,7.50
2020,01,19,18,40,7.50
2020,01,19,18,41,7.40
2020,01,19,18,42,7.40
2020,01,19,18,43,7.40
2020,01,19,18,44,7.40
2020,01,19,18,45,7.40
2020,01,19,18,46,7.40
2020,01,19,18,47,7.40
2020,01,19,18,48,7.40
2020,01,19,18,49,7.40
2020,01,19,18,50,7.40
2020,01,19,18,51,7.40
2020,01,19,18,52,7.40
2020,01,19,18,53,7.40
2020,01,19,18,54,7.40
2020,01,19,18,55,7.40
2020,01,19,18,56,7.30
2020,01,19,18,57,7.30
2020,01,19,18,58,7.40
2020,01,19,18,59,7.40
2020,01,19,19,00,7.40
2020,01,19,19,01,7.40
2020,01,19,19,02,7.40
2020,01,19,19,03,7.40
2020,01,19,19,04,7.40
2020,01,19,19,05,7.40
2020,01,19,19,06,7.30
2020,01,19,19,07,7.30
2020,01,19,19,08,7.30
2020,01,19,19,09,7.30
2020,01,19,19,10,7.30
2020,01,19,19,11,7.30
2020,01,19,19,12,7.30
2020,01,19,19,13,7.30
2020,01,19,19,14,7.30
2020,01,19,19,15,7.30
2020,01,19,19,16,7.30
2020,01,19,19,17,7.30
2020,01,19,19,18,7.30
2020,01,19,19,19,7.30
2020,01,19,19,20,7.30
2020,01,19,19,21,7.30
2020,01,19,19,22,7.30
2020,01,19,19,23,7.30
2020,01,19,19,24,7.30
2020,01,19,19,25,7.30
2020,01,19,19,26,7.30
2020,01,19,19,27,7.30
2020,01,19,19,28,7.30
2020,01,19,19,29,7.30
2020,01,19,19,30,7.30
2020,01,19,19,31,7.30
2020,01,19,19,32,7.30
2020,01,19,19,33,7.30
2020,01,19,19,34,7.30
2020,01,19,19,35,7.30
2020,01,19,19,36,7.30
2020,01,19,19,37,7.30
2020,01,19,19,38,7.30
2020,01,19,19,39,7.30
2020,01,19,19,40,7.30
2020,01,19,19,41,7.30
2020,01,19,19,42,7.30
2020,01,19,19,43,7.30
2020,01,19,19,44,7.30
2020,01,19,19,45,7.30
2020,01,19,19,46,7.30
2020,01,19,19,47,7.30
2020,01,19,19,48,7.30
2020,01,19,19,49,7.30
2020,01,19,19,50,7.30
2020,01,19,19,51,7.30
2020,01,19,19,52,7.30
2020,01,19,19,53,7.30
2020,01,19,19,54,7.30
2020,01,19,19,55,7.30
2020,01,19,19,56,7.30
2020,01,19,19,57,7.30
2020,01,19,19,58,7.30
2020,01,19,19,59,7.30
2020,01,19,20,00,7.30
2020,01,19,20,01,7.30
2020,01,19,20,02,7.30
2020,01,19,20,03,7.30
2020,01,19,20,04,7.30
2020,01,19,20,05,7.30
2020,01,19,20,06,7.30
2020,01,19,20,07,7.30
2020,01,19,20,08,7.30
2020,01,19,20,09,7.30
2020,01,19,20,10,7.30
2020,01,19,20,11,7.30
2020,01,19,20,12,7.30
2020,01,19,20,13,7.30
2020,01,19,20,14,7.30
2020,01,19,20,15,7.30
2020,01,19,20,16,7.30
2020,01,19,20,17,7.30
2020,01,19,20,18,7.20
2020,01,19,20,19,7.20
2020,01,19,20,20,7.20
2020,01,19,20,21,7.20
2020,01,19,20,22,7.20
2020,01,19,20,23,7.20
2020,01,19,20,24,7.20
2020,01,19,20,25,7.20
2020,01,19,20,26,7.20
2020,01,19,20,27,7.20
2020,01,19,20,28,7.20
2020,01,19,20,29,7.20
2020,01,19,20,30,7.20
2020,01,19,20,31,7.20
2020,01,19,20,32,7.20
2020,01,19,20,33,7.20
2020,01,19,20,34,7.20
2020,01,19,20,35,7.20
2020,01,19,20,36,7.20
2020,01,19,20,37,7.20
2020,01,19,20,38,7.20
2020,01,19,20,39,7.20
2020,01,19,20,40,7.20
2020,01,19,20,41,7.20
2020,01,19,20,42,7.20
2020,01,19,20,43,7.20
2020,01,19,20,44,7.20
2020,01,19,20,45,7.20
2020,01,19,20,46,7.20
2020,01,19,20,47,7.20
2020,01,19,20,48,7.20
2020,01,19,20,49,7.20
2020,01,19,20,50,7.20
2020,01,19,20,51,7.20
2020,01,19,20,52,7.20
2020,01,19,20,53,7.20
2020,01,19,20,54,7.20